Location: Bucksport
(44.6167°N, 68.8000°W)
Time: 03:26:12
(UTC-05:00)

N. Korean satellite - Pass Details

Date: 29 October 2019
Orbit: 456 x 506 km, 97.2° (Epoch: 21 November)

Event Time Altitude Azimuth Distance (km) Brightness Sun altitude
Rises 18:33:30 0° 203° (SSW) 2,476 10.6 -12.1°
Reaches altitude 10° 18:36:03 10° 224° (SW) 1,615 10.0 -12.5°
Maximum altitude 18:38:25 17° 267° (W) 1,246 9.9 -12.9°
Drops below altitude 10° 18:40:49 10° 311° (NW) 1,641 9.9 -13.4°
Sets 18:43:26 0° 332° (NNW) 2,536 10.5 -13.8°
